Weather History for KFCM - January, 2013

Change the Weather History Date:

Monday, January 7, 2013

  Actual Average Record
Temperature  
Mean Temperature 29 °F -  
Max Temperature 35 °F 23 °F 53 °F (2003)
Min Temperature 23 °F 8 °F -17 °F (2014)
Degree Days  
Heating Degree Days 36    
Moisture  
Dew Point 21 °F    
Average Humidity 72    
Maximum Humidity 85    
Minimum Humidity 61    
Precipitation  
Precipitation 0.00 in - - ()
Sea Level Pressure  
Sea Level Pressure 29.95 in    
Wind  
Wind Speed 11 mph (SW)    
Max Wind Speed 16 mph    
Max Gust Speed 23 mph    
Visibility 10 miles    
Events      
Averages and records for this station are not official NWS values.
T = Trace of Precipitation, MM = Missing Value Source: NWS Daily Summary

Daily Weather History Graph

Daily Weather History Graph

Search for Another Location

Airport or City:

Trip Planner

Search our weather history database for the weather conditions in past years. The results will help you decide how hot, cold, wet, or windy it might be!

Date:

Astronomy

Jan. 07, 2013 Rise Set
Actual Time 7:50 AM CST 4:49 PM CST
Civil Twilight 7:17 AM CST 5:23 PM CST
Nautical Twilight 6:41 AM CST 5:59 PM CST
Astronomical Twilight 6:05 AM CST 6:35 PM CST
Moon 3:12 AM CST (1/7) 1:03 PM CST (1/7)
Length of Visible Light 10h 05m
Length of Day
8h 59m
Waning Crescent, 22% of the Moon is Illuminated
Jan 7
Waning Crescent
Jan 11
New
Jan 18
First Quarter
Jan 26
Full
Feb 3
Last Quarter

Hourly Weather History & Observations

Time (CST) Temp. Windchill Dew Point Humidity Pressure Visibility Wind Dir Wind Speed Gust Speed Precip Events Conditions
12:53 AM 23.0 °F 10.6 °F 16.0 °F 74% 29.99 in 10.0 mi South 13.8 mph - N/A   Clear
1:53 AM 27.0 °F 14.7 °F 18.0 °F 69% 29.97 in 10.0 mi South 16.1 mph 23.0 mph N/A   Clear
2:53 AM 28.9 °F 19.2 °F 19.0 °F 67% 29.94 in 10.0 mi SSW 11.5 mph - N/A   Clear
3:53 AM 28.9 °F 18.6 °F 19.0 °F 67% 29.93 in 10.0 mi SSW 12.7 mph 21.9 mph N/A   Clear
4:53 AM 28.0 °F 18.6 °F 19.0 °F 69% 29.92 in 10.0 mi SSW 10.4 mph - N/A   Clear
5:53 AM 28.0 °F 18.1 °F 19.0 °F 69% 29.92 in 10.0 mi SSW 11.5 mph - N/A   Clear
6:53 AM 28.9 °F 18.6 °F 19.9 °F 69% 29.93 in 10.0 mi SSW 12.7 mph - N/A   Clear
7:53 AM 28.0 °F 18.1 °F 19.9 °F 72% 29.94 in 10.0 mi SW 11.5 mph - N/A   Clear
8:53 AM 26.1 °F 15.6 °F 19.0 °F 75% 29.93 in 10.0 mi SSW 11.5 mph - N/A   Clear
9:53 AM 28.0 °F 18.6 °F 19.9 °F 72% 29.95 in 10.0 mi SSW 10.4 mph - N/A   Clear
10:53 AM 30.9 °F 21.2 °F 21.9 °F 69% 29.96 in 10.0 mi SW 12.7 mph - N/A   Clear
11:53 AM 32.0 °F 23.6 °F 23.0 °F 69% 29.94 in 10.0 mi SW 10.4 mph - N/A   Clear
12:53 PM 33.1 °F 25.5 °F 23.0 °F 66% 29.92 in 10.0 mi SW 9.2 mph - N/A   Clear
1:53 PM 34.0 °F 27.2 °F 23.0 °F 64% 29.92 in 10.0 mi SW 8.1 mph - N/A   Clear
2:53 PM 35.1 °F 28.6 °F 23.0 °F 61% 29.94 in 10.0 mi WSW 8.1 mph - N/A   Clear
3:53 PM 35.1 °F 28.6 °F 23.0 °F 61% 29.94 in 10.0 mi SW 8.1 mph - N/A   Clear
4:53 PM 30.9 °F 25.2 °F 23.0 °F 72% 29.96 in 10.0 mi South 5.8 mph - N/A   Clear
5:53 PM 28.9 °F 22.8 °F 21.9 °F 75% 29.97 in 10.0 mi SSW 5.8 mph - N/A   Clear
6:53 PM 28.0 °F 22.8 °F 21.9 °F 78% 29.98 in 10.0 mi SSW 4.6 mph - N/A   Clear
7:53 PM 28.9 °F 22.8 °F 21.9 °F 75% 29.97 in 10.0 mi WSW 5.8 mph - N/A   Clear
8:53 PM 27.0 °F 20.5 °F 21.9 °F 81% 29.97 in 10.0 mi WSW 5.8 mph - N/A   Clear
9:53 PM 26.1 °F 20.5 °F 21.0 °F 81% 29.98 in 10.0 mi SW 4.6 mph - N/A   Partly Cloudy
10:53 PM 26.1 °F 19.4 °F 21.9 °F 84% 29.99 in 9.0 mi WSW 5.8 mph - N/A   Mostly Cloudy
11:53 PM 25.0 °F 18.1 °F 21.0 °F 85% 30.00 in 8.0 mi WSW 5.8 mph - N/A   Clear